Regional Weather Roundup
Issued by NWS Newport/Morehead, NC

Current Version | Previous Version | Text Only | Print | Product List | Glossary Off
Versions: 1 2 3 4 5 6 7 8 9 10 11 12 13 14 15 16 17 18 19 20 21 22 23 24 25 26 27 28 29 30 31 32 33 34 35 36 37 38 39 40 41 42 43 44 45 46 47 48 49 50

000
ASUS42 KMHX 042213
RWRMHX
WEATHER ROUNDUP FOR EASTERN NORTH CAROLINA
NATIONAL WEATHER SERVICE NEWPORT/MOREHEAD CITY NC
600 PM EDT MON MAY 04 2015

NOTE: "FAIR" INDICATES FEW OR NO CLOUDS BELOW 12,000 FEET
WITH NO SIGNIFICANT WEATHER AND/OR OBSTRUCTIONS TO VISIBILITY

NCZ015>017-031-032-045>047-102-103-042300-
NORTH COAST

CITY           SKY/WX    TMP DP  RH WIND       PRES   REMARKS
EDENTON        MOSUNNY   78  52  40 S8        30.28R
ELIZABETH CITY SUNNY     77  52  41 SE8       30.27S
KITTY HAWK     CLEAR     75  50  41 S7        30.28S
MANTEO         SUNNY     71  57  61 S14       30.29S

$$

NCZ045>047-081-094-103-104-042300-
CENTRAL COAST

CITY           SKY/WX    TMP DP  RH WIND       PRES   REMARKS
FRISCO         SUNNY     70  60  70 S6        30.32F
SWANQUARTER      N/A     75 N/A N/A S12G17    30.27S

$$

NCZ095-097-098-100-101-042300-
SOUTHERN COAST

CITY           SKY/WX    TMP DP  RH WIND       PRES   REMARKS
BEAUFORT       SUNNY     73  54  51 S8        30.32S
CEDAR ISLAND     N/A     77 N/A N/A S7G20     30.36S
JACKSONVILLE   SUNNY     75  52  44 S9        30.30S
PINEY ISLAND   PTCLDY   N/A N/A N/A S10       30.31S
WILMINGTON     SUNNY     75  48  38 S14       30.31S


$$

NCZ011>013-027>030-043-044-078>080-089-090>093-098-042300-
COASTAL PLAIN

CITY           SKY/WX    TMP DP  RH WIND       PRES   REMARKS
AHOSKIE        SUNNY     78  49  35 S8        30.25F
CLINTON        SUNNY     79  57  46 SE8       30.28S
ELIZABETHTOWN  SUNNY     78  52  39 S10       30.28S
GOLDSBORO      SUNNY     81  49  32 S7        30.24F
GREENVILLE     SUNNY     81  48  32 W5        30.27F
HAVELOCK       SUNNY     75  50  41 S14G21    30.32S
KENANSVILLE    MOSUNNY   76  50  39 SE5       30.29S
KINSTON        NOT AVBL
NEW BERN       SUNNY     77  51  40 S12       30.31S
RICHLANDS      SUNNY     77  52  41 S13       30.31S
ROCKY MOUNT    SUNNY     80  51  36 S7        30.26S
WASHINGTON     SUNNY     78  48  34 S7        30.28S
WHITEVILLE     SUNNY     77  53  43 S10       30.29R

$$

AMZ130-135-150-152-154-156-158-170-250-252-270-ANZ085-086-088-633-658-670-042300-
MARINE OBSERVATIONS

STATION/POSITION TIME  TEMP    WIND        PRES    WAVE   SWELL
                       AIR SEA DIR/SP/G            HT/PER HT/PER
                 (UTC) (F)     (DEG/KT/KT) (MB)    (FT/S) (FT/S)
CHESAPEAKE LIGHT 2200   62     170/ 27/ 27 1024.5
64 E VA BEACH    2150   63 62  190/ 10/ 12 1025.6    3/10   3/10
DUCK             2100      58  140/  9/ 10 1024.6
2 E DUCK         2111      60                N/A     2/12   2/12
OREGON INLET     2100   71 69  180/ 13/ 15 1026.3
13E OREGON INLT  2200      55                N/A     2/11   2/11
HATTERAS CG      2112          170/  3/  7 1026.4
DIAMOND BUOY     2150   74 78  200/ 12/ 14 1026.7    4/10   3/10
CAPE LOOKOUT     2200   72     170/  5/  6 1026.6
BEAUFORT LAB     2112          190/  8/  9 1026.0
27 SE WRIGHTSVLE NOT AVBL
5 SE WRIGHTSVLE  2108   71 69  170/  6/  8 1026.6
225 S CAPE HAT   2150   69 70   90/ 14/ 17 1026.8    5/10   3/10
41 SE CHARLESTON 2150   74 74   90/ 12/ 14 1025.5    3/10   2/10

$$



USA.gov is the U.S. government's official web portal to all federal, state and local government web resources and services.